User: anonymous   Login
Location: Caltech
(34.1382°N, 118.1253°W)
Time: 13:25:02
(UTC-08:00)
Language:

Tiros 1 despin weight - Orbit

View from above orbital plane
View from above orbital plane
View from above satellite
View from above satellite

Ground track
Ground track

The orbit data is extracted from the following two-line orbital elements,

1 00115U 60002D   16044.20636958  .00001108  00000-0  16222-3 0  9995
2 00115  48.1678 337.5212 0034613 101.1807 259.3000 14.82621163977502
Epoch (UTC): 13 February 2016 04:57:10
Eccentricity: 0.0034613
inclination: 48.1678°
perigee height: 597 km
apogee height: 645 km
right ascension of ascending node: 337.5212°
argument of perigee: 101.1807°
revolutions per day: 14.82621163
mean anomaly at epoch: 259.3000°
orbit number at epoch: 97750

The dashed part of the orbit path shows where the satellite is in the earth's shadow,  

DLR